User: anonymous   Login
Location: Arlington
(40.6323°N, 74.1651°W)
Time: 14:10:41
(UTC+00:00)
Language:

Cosmos 2263 Rocket - Orbit

View from above orbital plane
View from above orbital plane
View from above satellite
View from above satellite

Ground track
Ground track

The orbit data is extracted from the following two-line orbital elements,

1 22803U 93059B   20017.53794278 -.00000259 +00000-0 -10507-3 0  9990
2 22803 070.9904 059.4124 0016263 019.6303 340.5443 14.16815990361783
Epoch (UTC): 17 January 2020 12:54:38
Eccentricity: 0.0016263
inclination: 70.9904°
perigee height: 824 km
apogee height: 848 km
right ascension of ascending node: 59.4124°
argument of perigee: 19.6303°
revolutions per day: 14.16815990
mean anomaly at epoch: 340.5443°
orbit number at epoch: 36178

The dashed part of the orbit path shows where the satellite is in the earth's shadow,  

DLR